Tracking 19717 objects as of 25-Jun-2019
HD Live streaming from Space Station
objects crossing your sky now

SPACEBEE-7

Track SPACEBEE-7 now!
10-day predictions


NORAD ID: 43816
Int'l Code: 2018-099BL
Perigee: 579.8 km
Apogee: 596.6 km
Inclination: 97.7 °
Period: 96.3 minutes
Semi major axis: 6959 km
RCS: Unknown
Launch date: December 3, 2018
Source: United States (US)
Launch site: AIR FORCE WESTERN TEST RANGE (AFWTR)
aabbcc
Your satellite tracking list
Your tracking list is empty




NASA's NSSDC Master Catalog

Two Line Element Set (TLE):
1 43816U 18099BL  19176.17831682 -.00000179  00000-0 -10889-4 0  9998
2 43816  97.7453 248.1556 0012073 298.6329  61.3677 14.95408856 29946
Source of the keplerian elements: AFSPC